Preview of NWS' New Version of Forecast
This preview is not operational and should not be used for support decisions.

Regional Weather Roundup (RWR)

Issued by National Weather Service (NWS)

                            
000
ASUS43 KDTX 212110
RWRMI 
MICHIGAN HOURLY REGIONAL WEATHER ROUNDUP
NATIONAL WEATHER SERVICE DETROIT/PONTIAC MI
400 PM EST THU FEB 21 2019

NOTE: "FAIR" INDICATES FEW OR NO CLOUDS BELOW 12,000 FEET WITH NO
SIGNIFICANT WEATHER AND/OR OBSTRUCTION TO VISIBILITY.

MIZ047>049-052>055-059>063-066>070-074>076-081>083-212200-
SOUTHEAST LOWER MICHIGAN
  
CITY           SKY/WX    TMP DP  RH WIND       PRES   REMARKS
ADRIAN         FAIR      37  22  54 W15G22    30.16R WCI  28          
ALMA           FAIR      34  17  51 W15       30.11R WCI  24          
ANN ARBOR      FAIR      37  22  54 SW16      30.13R WCI  28          
BAD AXE        CLOUDY    34  23  64 W13G23    30.08R WCI  25          
CARO           FAIR      34  24  65 W13       30.09R WCI  25          
DETROIT CITY   FAIR      40  21  46 W13       30.11R WCI  32          
DETROIT        PTSUNNY   39  20  46 W17       30.14R WCI  30          
FLINT          FAIR      35  22  58 W15       30.12R WCI  25          
GROSSE ILE     FAIR      39  24  53 W14G20    30.13R WCI  31          
HILLSDALE      FAIR      37  19  49 W14G20    30.13R WCI  28          
HOWELL         FAIR      36  19  50 W17       30.11R WCI  26          

CITY           SKY/WX    TMP DP  RH WIND       PRES   REMARKS
JACKSON        FAIR      37  20  50 SW14      30.13R WCI  28          
LAMBERTVILLE   FAIR      39  26  60 W9G18     30.16R WCI  33          
LANSING        FAIR      34  21  59 W17       30.13R WCI  23          
LAPEER         FAIR      36  19  49 W14G23    30.09R WCI  27          
MASON          FAIR      37  20  51 W14       30.12R WCI  28          
MONROE         FAIR      38  25  58 W16       30.14R WCI  29          
MT. CLEMENS    PTSUNNY   40  21  47 W15G23    30.09R WCI  31          
PONTIAC        CLOUDY    36  21  54 W22       30.09R WCI  25          
PORT HOPE        N/A     35  20  54 W15G23    30.06R WCI  25          
PORT HURON     FAIR      39  21  48 W7        30.10R WCI  34          
TRI CITIES     FAIR      33  21  61 W20       30.10R WCI  21          
MIDLAND        FAIR      36  18  49 W15G25    30.09R WCI  26          
TROY           FAIR      41  16  35 W14G21    30.12R                  
SAGINAW HB     FAIR      34  21  60 SW14G21   30.10R WCI  24          
$$
MIZ043>046-050>051-056>058-064>065-071>073-077>080-212200-
SOUTHWEST LOWER MICHIGAN
  
CITY           SKY/WX    TMP DP  RH WIND       PRES   REMARKS
BATTLE CREEK   FAIR      34  19  54 W16       30.16R WCI  24          
BENTON HARBOR  FAIR      33  20  58 SW16      30.20S WCI  23          
BIG RAPIDS     FAIR      32  18  57 W14       30.10R WCI  22          
COLDWATER      FAIR      37  22  55 W15       30.17R WCI  27          
FREMONT        FAIR      31  18  57 W12       30.14R WCI  22          
HOLLAND        FAIR      31  21  66 W18       30.18R WCI  19          
GRAND RAPIDS   PTSUNNY   34  20  56 W15       30.15R WCI  24          
IONIA          FAIR      33  20  59 SW15G21   30.12R WCI  22          
KALAMAZOO      FAIR      34  19  54 W13       30.17R WCI  25          
LUDINGTON      PTSUNNY   29  18  63 W10G17    30.14R WCI  20          
MARSHALL       FAIR      36  21  55 W14G22    30.15R WCI  27          
MOUNT PLEASANT FAIR      34  16  47 W15G23    30.09R WCI  24          
MUSKEGON       FAIR      31  19  61 W14G20    30.17R WCI  21          
SOUTH HAVEN    FAIR      34  20  56 W13       30.19R WCI  25          
$$
MIZ016>042-212200-
NORTHERN LOWER MICHIGAN
  
CITY           SKY/WX    TMP DP  RH WIND       PRES   REMARKS
ALPENA         CLOUDY    31  19  61 W9G20     30.06R WCI  23          
BEAVER ISLAND  CLOUDY    29  24  82 W13       30.07R WCI  19          
BELLAIRE       LGT SNOW  30  20  67 W6G16     30.11R WCI  24          
CADILLAC       CLOUDY    26  15  64 W9        30.07R WCI  17          
CHARLEVOIX     FLURRIES  30  23  74 W13G18    30.11R WCI  20          
FRANKFORT      CLOUDY    28  21  74 W8        30.12R WCI  20          
GAYLORD        LGT SNOW  24  19  81 W12       30.04R WCI  13          
HARBOR SPRINGS LGT SNOW  29  26  87 W8G16     30.07R WCI  21          
HOUGHTON LAKE  PTSUNNY   27  16  63 NW13      30.07R WCI  16          
MANISTEE       CLOUDY    27  20  75 W10       30.13R WCI  17          
OSCODA         CLOUDY    33  20  57 NW13      30.06R WCI  24          
PELLSTON       CLOUDY    30  22  72 W9        30.06R WCI  22          
ROGERS CITY    CLOUDY    30  23  74 W10G17    30.06R WCI  21          
TRAVERSE CITY  PTSUNNY   29  20  69 SW6       30.10R WCI  23          
$$
MIZ007>008-015-212200-
EASTERN UPPER MICHIGAN
  
CITY           SKY/WX    TMP DP  RH WIND       PRES   REMARKS
KINROSS        MIX PCPN  30  24  78 NW15      30.02R WCI  19          
MACKINAC ISLAN CLOUDY    30  24  78 W16       30.04R WCI  19          
NEWBERRY       CLOUDY    28  25  88 MISG      30.04R FOG              
S. S. MARIE    FLURRIES  30  24  78 NW7       30.01R WCI  23          
MUNISING         N/A     29  21  72 NW15      30.07R WCI  18          
$$
MIZ004>006-011>014-085-212200-
CENTRAL UPPER MICHIGAN
  
CITY           SKY/WX    TMP DP  RH WIND       PRES   REMARKS
MANISTIQUE     FLURRIES  30  22  73 N8        30.06R WCI  22          
ESCANABA       CLOUDY    31  22  69 NW7       30.09R WCI  24          
MENOMINEE      CLOUDY    33  17  51 VRB6      30.10R WCI  28          
SAWYER-GWINN   FLURRIES  27  23  86 W10       30.04R WCI  17          
$$
MIZ001>003-009>011-084-212200-
WESTERN UPPER MICHIGAN
  
CITY           SKY/WX    TMP DP  RH WIND       PRES   REMARKS
IRON MOUNTAIN  CLOUDY    28  18  66 W12       30.06R WCI  18          
HOUGHTON       CLOUDY    24  18  77 W18       30.05R WCI  10          
COPPER HARBOR    N/A     26  20  77 N13       30.06R WCI  15          
IRONWOOD       CLOUDY    26  19  74 W13       30.09R WCI  15          
$$

ABBREVIATIONS USED IN REMARKS
   TC - TEMPERATURE IN CELSIUS
  WCI - WIND CHILL INDEX
   HX - HEAT INDEX
  VSB - VISIBILITY